CW3202 Weather Reports


Display with metric or nautical units.
time (UTC)temp
F
wind
direction
speed
MPH
gust
MPH
rain 1hr
in
rain 24hr
in
rain mn
in
humidity
%
barometer
mb
20260904052425 53 53 0.0 1.0 0.00 0.00 0.83 97 1009.6
20260904051725 53 53 0.0 1.0 0.00 0.00 0.83 97 1009.7
20260904051226 53 53 0.0 1.0 0.00 0.00 0.83 97 1009.7
20260904050724 53 53 0.0 1.0 0.00 0.00 0.83 97 1009.8
20260904050225 53 53 1.0 1.0 0.00 0.00 0.83 97 1009.8
20260904045724 54 53 0.0 0.0 0.00 0.00 0.83 97 1009.8
20260904044925 54 53 0.0 1.0 0.00 0.00 0.83 97 1009.7
20260904044425 54 53 1.0 1.0 0.00 0.00 0.83 97 1009.8
20260904043924 54 53 0.0 1.0 0.00 0.00 0.83 97 1009.8
20260904043425 54 53 0.0 1.0 0.00 0.00 0.83 97 1009.7
20260904042924 54 53 0.0 2.0 0.00 0.00 0.83 97 1009.7
20260904042424 54 53 1.0 2.0 0.00 0.00 0.83 97 1009.8
20260904041724 54 53 0.0 1.0 0.00 0.00 0.83 97 1009.8
20260904041024 54 53 1.0 1.0 0.00 0.00 0.83 97 1009.7
20260904040124 54 53 0.0 1.0 0.00 0.00 0.83 97 1009.7
20260904035624 54 53 1.0 1.0 0.00 0.00 0.83 97 1009.7
20260904035125 54 53 1.0 1.0 0.00 0.00 0.83 96 1009.6
20260904034624 54 53 0.0 2.0 0.00 0.00 0.83 96 1009.5
20260904034124 54 53 1.0 2.0 0.00 0.00 0.83 96 1009.4
20260904033624 54 53 1.0 2.0 0.00 0.00 0.83 96 1009.3
20260904033124 55 53 2.0 2.0 0.00 0.00 0.83 95 1009.2
20260904032624 55 53 1.0 2.0 0.00 0.00 0.83 95 1009.1
20260904032124 55 53 0.0 3.0 0.00 0.00 0.83 95 1009.1
20260904031624 55 53 2.0 3.0 0.00 0.00 0.83 94 1009.1
20260904031124 55 53 1.0 2.0 0.00 0.00 0.83 94 1009.0
20260904030625 56 53 1.0 2.0 0.00 0.00 0.83 94 1009.0
20260904030125 56 53 1.0 2.0 0.00 0.00 0.83 93 1009.0
20260904025624 56 54 1.0 1.0 0.00 0.00 0.83 93 1008.9
20260904025124 56 54 0.0 0.0 0.00 0.00 0.83 92 1008.9
20260904024625 57 54 0.0 0.0 0.00 0.00 0.83 92 1008.8
20260904023925 57 54 0.0 2.0 0.00 0.00 0.83 91 1008.8
20260904023424 58 54 0.0 2.0 0.00 0.00 0.83 91 1008.8
20260904022924 58 54 0.0 2.0 0.00 0.00 0.83 91 1008.8
20260904022025 58 54 0.0 2.0 0.00 0.00 0.83 91 1008.6
20260904021524 58 54 1.0 2.0 0.00 0.00 0.83 89 1008.6
20260904020825 59 61 0.0 3.0 0.00 0.00 0.83 89 1008.6
20260904020324 59 61 0.0 3.0 0.00 0.00 0.83 87 1008.6
20260904015824 59 51 3.0 3.0 0.00 0.00 0.83 86 1008.5
20260904015324 59 79 1.0 3.0 0.00 0.00 0.83 86 1008.5
20260904014825 59 79 3.0 4.0 0.00 0.00 0.83 85 1008.5
20260904014324 59 42 2.0 4.0 0.00 0.00 0.83 85 1008.5
20260904013824 59 64 2.0 4.0 0.00 0.00 0.83 84 1008.5
20260904013325 59 63 2.0 4.0 0.00 0.00 0.83 84 1008.5
20260904012624 59 65 2.0 5.0 0.00 0.00 0.83 82 1008.5
20260904012125 59 9 2.0 5.0 0.00 0.00 0.83 83 1008.5
20260904011624 60 50 2.0 5.0 0.00 0.00 0.83 83 1008.5
20260904010925 60 84 3.0 5.0 0.00 0.00 0.83 83 1008.4
20260904010424 60 84 3.0 5.0 0.00 0.00 0.83 81 1008.4
20260904005924 60 67 3.0 7.0 0.00 0.00 0.83 81 1008.3
20260904005425 61 85 4.0 8.0 0.00 0.00 0.83 80 1008.3
20260904004924 62 90 3.0 8.0 0.00 0.00 0.83 78 1008.3
20260904004425 62 92 3.0 3.0 0.00 0.00 0.83 81 1008.3
20260904003925 62 51 3.0 4.0 0.00 0.00 0.83 80 1008.2
20260904003425 62 71 3.0 6.0 0.00 0.00 0.83 79 1008.3
20260904002925 62 56 4.0 7.0 0.00 0.00 0.83 84 1008.3
20260904002425 61 360 5.0 8.0 0.00 0.00 0.83 83 1008.2
20260904001924 61 17 5.0 8.0 0.00 0.00 0.83 85 1008.2
20260904001424 60 24 8.0 8.0 0.00 0.00 0.83 86 1008.2
20260904000925 60 355 4.0 10.0 0.00 0.00 0.83 87 1008.3
20260904000425 60 17 8.0 11.0 0.00 0.00 0.83 87 1008.3
20260903235725 60 37 11.0 11.0 0.00 0.00 0.83 90 1008.3
20260903235024 60 36 5.0 7.0 0.00 0.00 0.83 89 1008.4
20260903234525 60 62 3.0 7.0 0.00 0.00 0.83 89 1008.5
20260903234024 60 40 5.0 8.0 0.00 0.00 0.83 90 1008.5
20260903233525 60 38 2.0 8.0 0.00 0.00 0.83 90 1008.4
20260903233025 60 23 8.0 8.0 0.00 0.00 0.83 89 1008.4
20260903232525 60 355 6.0 8.0 0.00 0.00 0.83 90 1008.4
20260903232024 59 42 4.0 6.0 0.00 0.00 0.83 93 1008.5
20260903231525 59 36 6.0 8.0 0.00 0.00 0.83 92 1008.4
20260903230824 58 5 3.0 8.0 0.00 0.00 0.83 92 1008.5
20260903230324 58 11 2.0 9.0 0.00 0.00 0.83 93 1008.5
20260903225825 59 28 3.0 9.0 0.00 0.00 0.83 92 1008.5
20260903225126 59 38 4.0 7.0 0.00 0.00 0.82 94 1008.7
20260903224625 58 5 3.0 5.0 0.00 0.00 0.82 94 1008.8
20260903224124 58 44 3.0 5.0 0.00 0.00 0.82 95 1008.8
20260903223625 58 44 2.0 5.0 0.00 0.00 0.82 93 1008.8
20260903223124 59 65 2.0 3.0 0.00 0.00 0.81 94 1008.8
20260903222624 59 84 3.0 4.0 0.00 0.00 0.81 93 1008.8
20260903222124 59 65 3.0 7.0 0.00 0.00 0.81 93 1008.9
20260903221624 59 12 4.0 7.0 0.00 0.00 0.80 93 1008.8
20260903220524 59 78 2.0 5.0 0.00 0.00 0.80 94 1008.8
20260903220025 58 84 5.0 5.0 0.00 0.00 0.80 95 1008.7
20260903215524 58 60 3.0 5.0 0.00 0.00 0.80 94 1008.8
20260903215024 58 57 4.0 5.0 0.00 0.00 0.80 94 1008.8
20260903214525 58 44 4.0 4.0 0.00 0.00 0.80 94 1008.7
20260903214025 58 29 3.0 5.0 0.00 0.00 0.80 96 1008.7
20260903213325 58 86 5.0 5.0 0.00 0.00 0.80 96 1008.9
20260903212825 58 42 3.0 5.0 0.00 0.00 0.80 96 1008.8
20260903212325 57 9 3.0 5.0 0.00 0.00 0.80 96 1008.9
20260903211625 57 15 3.0 4.0 0.00 0.00 0.80 97 1008.9
20260903211124 56 355 2.0 5.0 0.00 0.00 0.80 97 1008.8
20260903210625 56 34 2.0 5.0 0.00 0.00 0.80 97 1008.8
20260903210124 56 290 2.0 4.0 0.00 0.00 0.80 97 1008.8
20260903205624 55 13 3.0 4.0 0.00 0.00 0.80 97 1008.9
20260903204924 55 355 3.0 4.0 0.00 0.00 0.79 96 1008.8
20260903204424 55 5 3.0 4.0 0.00 0.00 0.78 95 1008.9
20260903203925 55 30 4.0 5.0 0.00 0.00 0.77 95 1008.9
20260903203424 56 355 4.0 5.0 0.00 0.00 0.77 96 1009.0
20260903202725 56 327 4.0 5.0 0.00 0.00 0.77 96 1008.9
20260903202224 55 351 3.0 6.0 0.00 0.00 0.77 96 1008.9
20260903201525 55 9 3.0 7.0 0.00 0.00 0.77 95 1009.0
20260903201025 56 25 4.0 7.0 0.00 0.00 0.77 96 1009.1
20260903200325 55 27 3.0 5.0 0.00 0.00 0.77 96 1009.1
20260903195824 55 5 5.0 8.0 0.00 0.00 0.77 96 1009.0
20260903195325 55 34 3.0 8.0 0.00 0.00 0.77 96 1009.1
20260903194824 55 19 8.0 8.0 0.00 0.00 0.77 97 1009.0
20260903194325 54 313 4.0 5.0 0.00 0.00 0.77 96 1008.9
20260903193824 54 5 5.0 5.0 0.00 0.00 0.77 97 1008.9
20260903193325 54 19 3.0 9.0 0.00 0.00 0.77 97 1009.0
20260903192825 54 28 4.0 9.0 0.00 0.00 0.76 96 1009.2
20260903192324 55 18 7.0 9.0 0.00 0.00 0.75 96 1009.2
20260903191625 56 16 8.0 9.0 0.00 0.00 0.74 96 1009.2
20260903191124 56 26 5.0 6.0 0.00 0.00 0.73 96 1009.2
20260903190624 56 360 4.0 5.0 0.00 0.00 0.73 95 1009.2
20260903190125 56 360 5.0 5.0 0.00 0.00 0.73 95 1009.2
20260903185625 56 360 3.0 6.0 0.00 0.00 0.72 95 1009.2
20260903185124 56 360 3.0 6.0 0.00 0.00 0.72 94 1009.1
20260903184624 56 360 5.0 6.0 0.00 0.00 0.72 95 1009.1
20260903184125 57 360 5.0 6.0 0.00 0.00 0.72 95 1009.1
20260903183625 57 360 2.0 6.0 0.00 0.00 0.72 94 1009.0
20260903183124 57 360 6.0 6.0 0.00 0.00 0.72 95 1009.0
20260903182624 56 360 2.0 4.0 0.00 0.00 0.72 95 1009.0
20260903182124 56 360 2.0 5.0 0.00 0.00 0.72 95 1009.0
20260903181625 57 360 3.0 6.0 0.00 0.00 0.72 95 1009.0
20260903181124 57 360 5.0 6.0 0.00 0.00 0.72 95 1009.0
20260903180624 57 360 6.0 10.0 0.00 0.00 0.72 96 1008.9
20260903180125 57 360 5.0 10.0 0.00 0.00 0.72 97 1009.0
20260903175624 57 360 2.0 6.0 0.00 0.00 0.72 97 1008.9
20260903175124 57 360 4.0 5.0 0.00 0.00 0.72 97 1008.8
20260903174624 57 360 3.0 8.0 0.00 0.00 0.72 97 1008.8
20260903173924 56 360 2.0 8.0 0.00 0.00 0.72 97 1008.6
20260903173424 56 360 6.0 6.0 0.00 0.00 0.72 97 1008.6
20260903172924 56 42 5.0 7.0 0.00 0.00 0.72 97 1008.6
20260903172224 56 10 4.0 7.0 0.00 0.00 0.72 98 1008.5
20260903171524 56 26 3.0 4.0 0.00 0.00 0.72 99 1008.7
20260903171025 56 48 3.0 4.0 0.00 0.00 0.72 99 1008.6
20260903170524 55 17 2.0 4.0 0.00 0.00 0.72 99 1008.6
20260903165824 55 34 3.0 4.0 0.00 0.00 0.72 99 1008.5
20260903165324 55 42 3.0 4.0 0.00 0.00 0.72 99 1008.7
20260903164825 54 121 1.0 1.0 0.00 0.00 0.72 99 1008.6
20260903164324 54 121 0.0 2.0 0.00 0.00 0.72 98 1008.7
20260903163825 54 121 0.0 3.0 0.00 0.00 0.71 98 1008.5
20260903163325 54 121 0.0 4.0 0.00 0.00 0.67 98 1008.7
20260903162824 55 30 1.0 6.0 0.00 0.00 0.59 98 1008.5
20260903162325 55 32 3.0 8.0 0.00 0.00 0.52 98 1008.6
20260903161824 55 35 5.0 8.0 0.00 0.00 0.47 99 1008.5
20260903161325 55 17 7.0 7.0 0.00 0.00 0.46 99 1008.6
20260903160825 55 31 3.0 5.0 0.00 0.00 0.45 99 1008.7
20260903160124 55 24 3.0 4.0 0.00 0.00 0.45 99 1008.6
20260903155624 54 36 3.0 3.0 0.00 0.00 0.45 99 1008.6
20260903155124 54 324 2.0 2.0 0.00 0.00 0.45 99 1008.6
20260903154425 55 324 1.0 1.0 0.00 0.00 0.44 99 1008.7
20260903153724 54 324 0.0 2.0 0.00 0.00 0.43 99 1008.6
20260903153224 54 324 1.0 2.0 0.00 0.00 0.43 99 1008.5
20260903152724 54 324 0.0 1.0 0.00 0.00 0.43 99 1008.5
20260903152224 54 304 1.0 2.0 0.00 0.00 0.43 99 1008.5
20260903151525 54 304 0.0 2.0 0.00 0.00 0.43 99 1008.4
20260903151025 54 42 0.0 2.0 0.00 0.00 0.42 99 1008.3
20260903150525 54 41 2.0 2.0 0.00 0.00 0.42 99 1008.4
20260903150024 54 42 2.0 2.0 0.00 0.00 0.42 99 1008.4
20260903145524 54 42 0.0 1.0 0.00 0.00 0.42 99 1008.5
20260903145025 54 41 1.0 1.0 0.00 0.00 0.42 98 1008.4
20260903144524 54 41 0.0 1.0 0.00 0.00 0.42 98 1008.4
20260903144024 54 41 0.0 1.0 0.00 0.00 0.42 98 1008.3
20260903143125 54 41 1.0 2.0 0.00 0.00 0.42 98 1008.3
20260903142624 54 41 1.0 2.0 0.00 0.00 0.42 98 1008.2
20260903141924 54 46 0.0 2.0 0.00 0.00 0.42 98 1008.1
20260903141425 54 46 2.0 3.0 0.00 0.00 0.41 98 1008.1
20260903140924 54 38 2.0 3.0 0.00 0.00 0.41 98 1008.1
20260903140424 54 64 2.0 3.0 0.00 0.00 0.41 98 1008.1
20260903135725 54 69 1.0 2.0 0.00 0.00 0.40 98 1008.1
20260903135225 54 69 2.0 2.0 0.00 0.00 0.40 98 1008.1
20260903134724 54 59 1.0 8.0 0.00 0.00 0.40 98 1008.0
20260903134024 54 44 3.0 8.0 0.00 0.00 0.40 98 1007.8
20260903133324 54 34 3.0 5.0 0.00 0.00 0.38 98 1007.8
20260903132824 54 73 3.0 5.0 0.00 0.00 0.37 98 1007.9
20260903132325 54 53 4.0 7.0 0.00 0.00 0.36 98 1007.9
20260903131825 54 30 4.0 7.0 0.00 0.00 0.36 98 1007.9
20260903131324 54 34 2.0 5.0 0.00 0.00 0.36 98 1007.7
20260903130825 54 42 4.0 5.0 0.00 0.00 0.36 98 1007.7
20260903130125 54 27 4.0 5.0 0.00 0.00 0.35 98 1007.7
20260903125625 54 32 5.0 5.0 0.00 0.00 0.35 98 1007.6
20260903124924 54 29 3.0 5.0 0.00 0.00 0.35 98 1007.7
20260903124425 54 34 3.0 7.0 0.00 0.00 0.34 98 1007.7
20260903123925 54 54 2.0 7.0 0.00 0.00 0.33 98 1007.8
20260903123425 54 40 2.0 5.0 0.00 0.00 0.32 98 1007.7
20260903122925 54 24 5.0 6.0 0.00 0.00 0.30 98 1007.6
20260903122424 54 53 3.0 6.0 0.00 0.00 0.28 98 1007.8
20260903121924 54 44 3.0 4.0 0.00 0.00 0.27 98 1007.8
20260903121224 54 63 0.0 4.0 0.00 0.00 0.26 98 1007.7
20260903120725 54 46 3.0 4.0 0.00 0.00 0.26 98 1007.7
20260903120224 54 38 2.0 4.0 0.00 0.00 0.26 98 1007.8
20260903115724 54 32 2.0 3.0 0.00 0.00 0.26 98 1007.8
20260903115224 54 34 2.0 3.0 0.00 0.00 0.26 98 1007.8
20260903114725 54 34 2.0 2.0 0.00 0.00 0.26 98 1007.7
20260903114224 54 34 1.0 4.0 0.00 0.00 0.26 98 1007.6
20260903113724 54 33 2.0 4.0 0.00 0.00 0.26 98 1007.6
20260903113224 54 52 2.0 2.0 0.00 0.00 0.25 98 1007.6
20260903112724 54 52 2.0 3.0 0.00 0.00 0.25 98 1007.6
20260903112225 54 49 1.0 3.0 0.00 0.00 0.25 98 1007.6
20260903111724 54 52 2.0 5.0 0.00 0.00 0.25 98 1007.6
20260903111225 54 30 2.0 5.0 0.00 0.00 0.25 98 1007.6
20260903110725 54 20 2.0 4.0 0.00 0.00 0.25 98 1007.6
20260903110224 54 36 1.0 4.0 0.00 0.00 0.25 98 1007.5
20260903105725 54 20 4.0 5.0 0.00 0.00 0.24 98 1007.6
20260903105225 54 32 3.0 5.0 0.00 0.00 0.24 98 1007.6
20260903104724 54 17 2.0 3.0 0.00 0.00 0.23 98 1007.6
20260903104224 54 31 2.0 2.0 0.00 0.00 0.23 98 1007.6
20260903103724 54 26 1.0 7.0 0.00 0.00 0.22 98 1007.7
20260903103224 54 26 2.0 7.0 0.00 0.00 0.21 97 1007.7
20260903102725 54 15 7.0 7.0 0.00 0.00 0.19 97 1007.7
20260903102225 54 40 5.0 5.0 0.00 0.00 0.17 97 1007.7
20260903101724 54 51 4.0 4.0 0.00 0.00 0.14 98 1007.8
20260903100825 55 63 3.0 4.0 0.00 0.00 0.10 97 1007.7
20260903100324 55 54 3.0 4.0 0.00 0.00 0.08 97 1007.8
20260903095824 55 63 4.0 4.0 0.00 0.00 0.07 97 1007.7
20260903095325 55 43 3.0 4.0 0.00 0.00 0.06 97 1007.7
20260903094024 55 65 3.0 5.0 0.00 0.00 0.06 97 1007.6
20260903093324 55 49 3.0 5.0 0.00 0.00 0.05 97 1007.7
20260903092825 55 49 5.0 5.0 0.00 0.00 0.04 97 1007.7
20260903092324 55 16 2.0 4.0 0.00 0.00 0.04 97 1007.8
20260903091624 55 42 3.0 5.0 0.00 0.00 0.04 97 1007.8
20260903091124 55 42 3.0 5.0 0.00 0.00 0.04 97 1007.8
20260903090624 55 28 4.0 7.0 0.00 0.00 0.04 97 1007.8
20260903090124 55 59 2.0 7.0 0.00 0.00 0.04 97 1007.8
20260903085624 55 49 4.0 6.0 0.00 0.00 0.04 97 1007.8
20260903084924 55 40 3.0 4.0 0.00 0.00 0.02 96 1007.9
20260903084425 55 52 3.0 5.0 0.00 0.00 0.02 96 1007.8
20260903083924 55 58 3.0 5.0 0.00 0.00 0.01 96 1007.9
20260903083425 55 50 2.0 4.0 0.00 0.00 0.00 96 1007.9
20260903082924 55 40 3.0 4.0 0.00 0.00 0.00 96 1007.9
20260903082225 55 44 3.0 7.0 0.00 0.00 0.00 96 1007.8
20260903081725 55 47 3.0 7.0 0.00 0.00 0.00 96 1007.9
20260903081224 55 82 7.0 7.0 0.00 0.00 0.00 97 1007.9
20260903080725 54 50 2.0 5.0 0.00 0.00 0.00 97 1007.9
20260903080225 54 71 2.0 6.0 0.00 0.00 0.00 97 1007.9
20260903075525 54 57 3.0 6.0 0.00 0.00 0.00 97 1007.9
20260903075024 54 42 3.0 6.0 0.00 0.00 0.00 97 1007.9
20260903074527 54 47 3.0 6.0 0.00 0.00 0.00 97 1007.8
20260903074025 54 42 4.0 7.0 0.00 0.00 0.00 97 1007.7
20260903073325 54 40 3.0 7.0 0.00 0.00 0.00 97 1007.8
20260903072625 54 13 7.0 7.0 0.00 0.00 0.00 98 1007.8
20260903072125 53 25 5.0 5.0 0.00 0.00 0.00 98 1007.9
20260903071624 53 17 1.0 4.0 0.00 0.00 0.00 98 1007.9
20260903070924 53 11 3.0 4.0 0.00 0.00 0.00 98 1007.8
20260903070424 53 5 3.0 4.0 0.00 0.00 0.00 98 1007.9
20260903065924 53 344 3.0 4.0 0.00 0.00 0.25 98 1007.9
20260903065424 53 348 4.0 5.0 0.00 0.00 0.25 98 1007.8
20260903064925 53 5 3.0 5.0 0.00 0.00 0.25 98 1007.9
20260903064424 53 360 5.0 5.0 0.00 0.00 0.25 99 1007.9
20260903063925 53 360 2.0 3.0 0.00 0.00 0.25 99 1007.9
20260903063425 52 360 1.0 3.0 0.00 0.00 0.25 99 1008.0
20260903062924 52 360 3.0 3.0 0.00 0.00 0.25 99 1007.9
20260903062424 52 360 2.0 3.0 0.00 0.00 0.25 99 1008.0
20260903061925 52 360 3.0 3.0 0.00 0.00 0.25 99 1008.0
20260903061425 52 360 3.0 3.0 0.00 0.00 0.25 99 1007.9
20260903060724 51 360 1.0 1.0 0.00 0.00 0.25 99 1008.0
20260903060225 51 360 0.0 1.0 0.00 0.00 0.25 98 1008.0
20260903055724 51 360 0.0 2.0 0.00 0.00 0.25 98 1008.0
20260903055224 51 360 1.0 2.0 0.00 0.00 0.25 98 1008.0
20260903054724 51 360 2.0 2.0 0.00 0.00 0.25 98 1007.9
20260903054024 51 360 1.0 2.0 0.00 0.00 0.25 98 1008.0
20260903053325 51 360 2.0 2.0 0.00 0.00 0.25 98 1008.1
20260903052824 51 360 0.0 2.0 0.00 0.00 0.25 98 1008.1